Temp
5 5 5 5 5 5 5 5 5 5 4 4 4 4 4 4 4 4 4 4 4 4 4 4 4 4 3 4 3 3 3 3 3 4 4 4 4 4 4 5 5 5 5
5 5 5 5 5 5 5 5 5 5 5 5 4 4 4 4 4 4 4 3 3 3 4 4 4 4 3 3 3 2 2 2 2 3 3 3 3 4 4 4 4 4 5
4 4 4 4 5 5 5 5 5 5 5 5 5 5 5 4 4 4 4 4 3 4 3 3 3 4 3 2 3 2 2 2 2 2 2 2 3 3 3 3 3 4 4
4 4 4 4 4 4 4 4 4 4 5 5 5 5 5 5 4 4 4 3 4 3 4 3 3 2 3 2 3 2 3 3 2 2 2 2 2 2 2 3 3 3 3
4 4 4 4 5 5 5 5 4 4 4 4 4 4 4 4 4 4 4 4 3 3 3 3 3 2 3 2 2 2 1 2 2 2 2 1 1 2 2 2 2 3 3
4 4 4 4 4 4 4 4 4 4 4 4 4 4 4 4 4 4 4 3 3 3 3 3 2 3 2 3 3 2 2 2 1 2 2 1 1 1 2 2 2 2 2
4 4 4 4 4 4 4 4 4 4 4 3 3 3 3 3 3 3 3 3 3 3 3 3 2 2 2 2 2 2 1 1 1 1 1 1 1 0 1 1 1 1 1
4 4 4 4 4 4 4 4 3 3 3 3 3 3 3 3 3 3 3 2 2 2 3 2 2 2 2 2 2 1 2 1 1 1 1 -0 -0 0 -0 -1 0 0 0
3 3 3 3 3 3 3 3 3 3 3 3 2 2 2 3 2 2 2 2 2 2 2 2 2 1 2 1 1 1 1 1 1 0 0 -0 -0 -0 -1 -1 -1 -0 -0
2 2 2 3 3 3 3 3 2 2 2 2 2 2 2 1 1 1 1 1 1 1 1 1 2 1 1 1 1 1 1 1 -0 -0 -0 -1 -1 -1 -1 -1 -1 -1 -1
2 2 2 2 2 2 2 2 2 2 2 2 2 1 1 1 0 0 0 1 0 0 1 1 1 1 0 0 0 0 0 -0 -0 -1 -1 -1 -1 -1 -1 -1 -1 -1 -1
2 2 1 2 2 2 2 2 2 2 1 1 1 1 -0 -1 -0 -1 -2 -2 -1 -1 -0 0 -0 -0 -0 -0 0 0 -0 -1 -1 -0 -1 -1 -1 -2 -2 -2 -2 -2 -1
2 1 1 1 1 1 2 1 1 1 1 1 0 -1 -1 -2 -2 -3 -3 -2 -2 -2 -1 -1 -1 -1 -1 -0 -1 -1 -1 -1 -1 -1 -1 -1 -2 -2 -2 -2 -2 -2 -1
1 1 1 1 1 1 1 1 0 -0 -0 -1 -1 -1 -2 -2 -2 -3 -3 -3 -3 -2 -2 -2 -2 -2 -2 -3 -2 -2 -2 -1 -1 -2 -2 -1 -2 -2 -3 -3 -2 -2 -2
0 1 1 1 1 0 0 0 0 -1 -1 -1 -2 -2 -3 -3 -3 -4 -2 -3 -3 -3 -2 -2 -3 -3 -2 -3 -2 -2 -2 -2 -2 -2 -2 -3 -3 -2 -3 -3 -4 -3 -3
-0 0 -0 -0 -0 -0 -0 -0 -0 -0 -1 -2 -2 -3 -4 -5 -4 -4 -4 -4 -3 -3 -3 -3 -3 -3 -3 -3 -3 -2 -2 -2 -2 -3 -2 -3 -2 -2 -3 -3 -3 -3 -3
-1 -1 -1 -1 -0 -0 -0 -0 -0 -1 -1 -2 -3 -3 -4 -5 -5 -4 -4 -4 -4 -3 -3 -3 -3 -3 -3 -3 -3 -3 -3 -3 -3 -3 -3 -3 -3 -3 -3 -3 -3 -3 -4
-1 -1 -1 -1 -1 -1 -1 -1 -1 -1 -2 -3 -4 -4 -4 -4 -5 -5 -4 -4 -4 -4 -4 -4 -3 -3 -4 -4 -4 -3 -3 -3 -3 -4 -4 -4 -3 -3 -4 -4 -4 -4 -4
-2 -2 -2 -1 -1 -1 -1 -1 -2 -3 -4 -6 -7 -7 -6 -5 -5 -5 -4 -4 -4 -4 -4 -4 -4 -4 -4 -4 -4 -3 -3 -4 -4 -4 -4 -4 -4 -4 -4 -5 -4 -4 -4
-3 -2 -2 -1 -1 -1 -2 -2 -3 -4 -4 -6 -6 -6 -5 -6 -5 -5 -5 -5 -4 -4 -4 -4 -3 -3 -4 -4 -4 -4 -3 -4 -4 -5 -4 -5 -5 -4 -4 -5 -5 -5 -5
-3 -2 -2 -2 -1 -2 -3 -3 -3 -4 -5 -6 -6 -5 -5 -5 -5 -5 -5 -5 -5 -5 -4 -4 -4 -4 -4 -4 -4 -4 -5 -4 -5 -5 -4 -4 -5 -5 -5 -5 -5 -5 -7
-3 -3 -2 -2 -2 -4 -3 -4 -3 -4 -4 -4 -5 -5 -5 -5 -5 -4 -4 -4 -4 -4 -4 -4 -4 -4 -4 -4 -5 -5 -5 -5 -4 -5 -5 -5 -5 -5 -5 -5 -6 -8 -7
-4 -4 -3 -3 -4 -4 -4 -4 -4 -4 -4 -5 -4 -4 -4 -5 -4 -5 -5 -5 -5 -4 -4 -5 -4 -4 -5 -5 -5 -5 -5 -5 -5 -5 -5 -5 -6 -6 -6 -7 -9 -7 -7
-6 -5 -4 -4 -5 -4 -4 -5 -5 -4 -4 -5 -5 -4 -4 -4 -4 -4 -5 -5 -5 -5 -4 -5 -5 -5 -5 -5 -5 -5 -5 -5 -6 -6 -6 -6 -7 -8 -8 -8 -8 -8 -8
-8 -8 -6 -6 -6 -4 -5 -6 -5 -5 -4 -4 -4 -4 -4 -4 -5 -5 -5 -5 -5 -5 -5 -5 -5 -5 -5 -5 -6 -6 -6 -6 -7 -8 -9 -9 -9 -9 -9 -9 -9 -9 -9
-8 -7 -8 -7 -7 -6 -6 -6 -6 -6 -5 -6 -5 -5 -6 -5 -5 -5 -5 -5 -5 -5 -5 -6 -6 -6 -6 -6 -7 -8 -9 -9 -9 -8 -9 -9 -9 -9 -9 -9 -10 -10 -10
Height
3135 3135 3135 3135 3135 3135 3135 3136 3137 3138 3138 3138 3138 3138 3139 3139 3140 3140 3141 3142 3143 3143 3144 3145 3145 3145 3145 3146 3146 3146 3146 3146 3146 3146 3146 3145 3146 3146 3147 3147 3148 3148 3150
3133 3132 3131 3131 3130 3130 3130 3131 3131 3132 3132 3133 3134 3134 3134 3134 3134 3135 3135 3137 3139 3139 3140 3141 3142 3142 3141 3142 3142 3142 3143 3143 3142 3142 3143 3143 3143 3143 3144 3144 3144 3145 3146
3130 3129 3128 3127 3127 3127 3126 3126 3126 3126 3126 3127 3127 3127 3127 3128 3128 3129 3130 3131 3133 3134 3135 3135 3136 3137 3137 3138 3138 3138 3139 3139 3139 3139 3139 3140 3140 3140 3140 3141 3141 3141 3141
3126 3125 3124 3124 3123 3122 3121 3121 3121 3121 3121 3121 3121 3121 3121 3121 3122 3122 3122 3124 3126 3127 3129 3129 3131 3130 3132 3132 3133 3133 3133 3134 3133 3134 3135 3136 3136 3136 3136 3137 3137 3137 3138
3121 3120 3119 3118 3117 3116 3116 3115 3115 3115 3114 3114 3114 3114 3114 3114 3114 3114 3116 3116 3118 3120 3121 3122 3124 3124 3126 3126 3126 3127 3126 3126 3128 3129 3129 3130 3131 3132 3132 3133 3133 3133 3133
3116 3114 3113 3111 3110 3109 3109 3108 3107 3107 3107 3107 3106 3106 3106 3107 3107 3107 3108 3109 3110 3111 3113 3115 3116 3118 3119 3120 3120 3120 3120 3121 3121 3122 3123 3124 3124 3126 3127 3127 3128 3129 3128
3110 3108 3106 3104 3103 3102 3101 3100 3100 3099 3099 3099 3098 3099 3098 3098 3099 3100 3101 3101 3102 3104 3105 3107 3109 3110 3111 3113 3114 3114 3114 3112 3114 3115 3116 3117 3118 3120 3121 3121 3122 3122 3122
3102 3100 3098 3096 3095 3095 3094 3092 3091 3091 3090 3091 3090 3090 3089 3091 3092 3092 3093 3094 3095 3096 3097 3099 3101 3103 3104 3105 3107 3108 3107 3106 3108 3109 3110 3111 3111 3112 3114 3115 3116 3117 3116
3094 3092 3090 3088 3086 3086 3086 3085 3084 3083 3082 3082 3082 3081 3080 3080 3082 3084 3085 3085 3087 3088 3089 3091 3093 3095 3096 3097 3099 3101 3103 3099 3101 3100 3102 3104 3106 3107 3107 3108 3112 3112 3111
3085 3083 3082 3080 3079 3077 3078 3076 3075 3074 3073 3073 3072 3073 3072 3072 3073 3073 3076 3077 3079 3079 3080 3081 3083 3085 3087 3089 3091 3093 3096 3093 3092 3094 3095 3097 3100 3101 3102 3103 3104 3104 3105
3079 3076 3074 3072 3071 3070 3069 3067 3067 3065 3065 3064 3064 3063 3063 3063 3063 3064 3065 3068 3070 3071 3072 3072 3073 3075 3078 3080 3083 3086 3087 3085 3084 3086 3091 3091 3092 3093 3095 3096 3098 3098 3098
3072 3068 3066 3064 3063 3061 3060 3059 3058 3057 3056 3055 3054 3054 3053 3053 3053 3056 3057 3059 3062 3062 3063 3064 3066 3068 3070 3072 3074 3076 3079 3078 3080 3081 3083 3083 3084 3086 3088 3089 3090 3089 3090
3066 3061 3058 3056 3054 3052 3051 3050 3049 3048 3047 3046 3045 3044 3044 3044 3046 3048 3050 3052 3053 3055 3055 3056 3057 3060 3063 3064 3067 3069 3071 3072 3074 3072 3074 3074 3077 3079 3081 3081 3081 3080 3082
3059 3055 3052 3048 3045 3043 3041 3039 3038 3038 3038 3037 3037 3036 3035 3035 3038 3040 3042 3045 3043 3047 3047 3048 3050 3053 3055 3056 3058 3060 3064 3066 3066 3068 3071 3067 3068 3072 3074 3075 3074 3073 3074
3052 3049 3045 3041 3038 3035 3032 3030 3029 3028 3027 3027 3027 3027 3026 3027 3028 3031 3033 3035 3036 3037 3038 3042 3043 3046 3047 3049 3052 3054 3056 3058 3059 3060 3063 3062 3065 3066 3067 3067 3067 3065 3066
3044 3041 3038 3035 3033 3030 3027 3024 3022 3021 3019 3018 3018 3018 3018 3019 3019 3021 3024 3026 3028 3029 3032 3033 3035 3039 3041 3042 3044 3046 3049 3050 3051 3054 3057 3056 3058 3058 3059 3058 3058 3058 3058
3037 3034 3031 3028 3026 3024 3020 3017 3015 3013 3010 3010 3010 3010 3011 3012 3012 3014 3015 3018 3019 3022 3022 3025 3027 3031 3033 3035 3037 3039 3040 3042 3044 3046 3046 3048 3050 3049 3048 3049 3049 3050 3050
3029 3026 3024 3021 3018 3015 3013 3010 3007 3004 3002 3001 3001 3001 3002 3004 3005 3006 3008 3010 3011 3014 3017 3018 3020 3023 3025 3027 3029 3031 3033 3034 3035 3037 3039 3040 3040 3040 3040 3041 3041 3041 3041
3022 3019 3017 3014 3012 3009 3006 3003 3000 2997 2996 2995 2994 2995 2995 2995 2996 2999 3000 3002 3004 3006 3009 3011 3013 3015 3017 3018 3021 3022 3024 3026 3028 3028 3030 3031 3032 3032 3032 3032 3032 3032 3030
3016 3014 3012 3009 3006 3004 3001 2998 2995 2993 2991 2990 2989 2989 2989 2987 2989 2990 2992 2994 2997 2999 3002 3003 3001 3005 3008 3010 3013 3015 3018 3019 3020 3021 3022 3023 3023 3023 3023 3023 3023 3021 3020
3011 3009 3007 3005 3002 3000 2997 2996 2993 2991 2988 2987 2985 2986 2986 2984 2985 2986 2986 2989 2991 2992 2993 2997 2996 2996 3001 3002 3006 3009 3011 3011 3013 3014 3014 3015 3016 3015 3015 3015 3014 3013 3013
3007 3005 3003 3001 2998 2996 2995 2993 2990 2989 2989 2986 2986 2986 2985 2984 2984 2984 2982 2984 2985 2987 2989 2990 2992 2994 2994 2997 3000 3002 3005 3005 3006 3007 3007 3008 3007 3007 3006 3006 3006 3007 3008
3004 3002 3000 2998 2996 2994 2993 2992 2990 2990 2988 2987 2987 2986 2986 2984 2983 2982 2981 2981 2982 2984 2986 2987 2988 2989 2991 2992 2995 2996 2998 2999 2999 3000 3000 2999 2999 3000 2999 2998 3001 3002 3001
3002 3000 2998 2997 2995 2994 2992 2992 2992 2990 2988 2988 2988 2987 2985 2983 2980 2978 2977 2978 2979 2981 2982 2984 2985 2985 2987 2987 2989 2990 2991 2991 2991 2992 2993 2993 2993 2993 2995 2995 2995 2995 2994
3001 2999 2997 2995 2994 2993 2991 2990 2991 2990 2990 2989 2988 2987 2985 2982 2980 2978 2976 2977 2977 2979 2979 2979 2980 2982 2982 2982 2983 2984 2986 2986 2986 2987 2987 2989 2990 2990 2990 2989 2988 2987 2985
2998 2996 2996 2994 2994 2992 2992 2993 2992 2991 2990 2990 2988 2987 2985 2983 2981 2980 2978 2978 2977 2978 2978 2979 2979 2980 2980 2980 2981 2981 2982 2983 2985 2985 2986 2987 2985 2985 2984 2982 2981 2979 2977
Wind_Speed
15 17 18 19 20 21 21 21 22 26 28 27 26 26 26 27 25 24 22 19 17 16 15 15 19 19 22 20 22 18 16 15 14 14 14 16 16 16 17 17 17 17 16
12 13 14 15 16 17 18 20 22 24 26 28 31 31 30 28 27 26 25 25 23 20 18 16 18 22 22 20 21 21 21 21 17 14 14 14 16 16 16 16 17 18 18
14 15 16 17 18 19 19 20 20 21 23 26 29 31 31 32 33 32 27 24 23 23 24 23 23 25 23 24 22 27 26 23 22 20 17 16 14 14 15 16 17 18 19
17 18 19 20 21 22 22 23 24 24 25 26 26 28 29 31 33 33 34 35 35 31 29 28 28 27 29 25 27 30 28 29 29 23 23 20 17 14 13 15 17 18 19
22 23 23 24 24 25 26 27 28 28 28 29 29 29 29 30 31 32 33 33 32 31 29 26 30 32 35 36 33 34 34 29 31 28 28 25 24 20 19 16 18 19 19
25 26 28 29 29 29 28 29 30 30 30 30 31 31 31 32 32 32 30 30 32 34 36 38 36 34 32 35 33 33 34 38 31 25 31 33 25 24 22 19 19 22 22
29 30 31 32 33 33 32 31 31 31 32 31 33 31 32 33 34 33 32 31 30 31 33 36 37 37 32 33 34 32 30 28 28 31 30 33 21 17 20 24 24 25 26
32 33 32 33 33 33 33 33 33 33 33 32 33 33 33 33 33 33 33 32 31 31 31 32 34 35 33 33 32 30 30 37 32 35 29 29 23 21 21 23 22 23 23
31 31 31 31 32 32 32 33 34 34 35 34 34 35 36 37 35 33 33 33 32 32 32 33 34 36 37 37 34 32 32 35 33 28 31 25 24 24 21 22 25 27 25
30 31 30 30 30 32 32 33 34 35 36 36 36 36 37 38 38 38 33 32 33 33 33 34 35 39 41 40 39 36 37 36 33 34 27 29 27 27 22 22 28 27 27
30 31 31 30 30 32 32 33 33 34 36 38 39 40 40 39 39 38 37 33 32 33 34 35 34 34 38 39 37 34 32 28 30 29 38 30 26 27 29 29 29 31 30
30 32 31 31 31 32 32 33 35 36 36 37 39 40 40 40 37 37 33 33 32 34 33 32 35 36 37 40 38 38 37 26 30 36 31 27 29 25 25 30 31 30 28
29 30 31 32 33 34 35 35 36 37 38 38 37 37 37 39 37 30 31 30 31 30 34 34 35 38 36 41 41 43 44 34 26 33 38 34 24 28 28 27 30 31 31
29 29 29 30 32 34 35 36 36 36 36 37 36 36 36 36 31 31 34 32 33 31 31 32 33 32 30 35 38 37 37 48 30 30 39 29 26 30 30 33 30 31 31
28 27 28 28 28 28 28 28 29 30 32 33 33 33 34 34 34 36 32 34 38 32 32 30 32 35 34 33 35 36 39 31 31 28 36 28 31 35 35 32 33 33 35
28 27 25 24 25 26 28 27 27 28 29 30 31 31 30 27 30 34 40 37 33 30 31 32 31 30 32 31 29 30 33 36 37 35 36 33 40 42 36 36 39 38 37
28 27 24 24 26 28 29 30 30 31 32 29 30 30 30 28 28 30 32 40 42 35 31 33 32 29 32 34 32 30 28 29 30 33 41 29 33 47 40 40 41 40 39
30 25 23 24 25 24 23 26 29 28 26 25 27 30 32 32 30 27 28 32 39 39 35 36 36 34 33 32 34 35 30 26 31 28 37 34 35 40 42 42 45 41 41
25 22 22 22 22 23 20 21 21 20 20 22 21 23 26 25 31 30 28 28 30 36 37 37 36 34 35 32 32 29 29 28 31 26 28 30 33 39 41 42 45 41 34
19 19 19 17 18 16 16 14 17 18 19 20 15 15 21 19 23 27 24 26 25 26 31 33 30 34 32 26 28 32 32 29 31 27 27 28 31 32 34 36 37 32 27
17 16 15 17 16 12 10 12 14 13 9 10 11 12 12 11 17 19 23 28 29 33 25 35 30 31 29 31 28 23 28 25 28 30 30 31 33 36 36 35 33 28 24
15 14 14 15 11 8 9 12 10 4 3 3 2 3 3 7 8 10 16 15 18 12 16 17 17 22 29 22 23 22 23 30 29 31 26 31 35 39 38 33 26 24 26
11 10 9 6 4 4 3 6 3 3 7 4 5 5 6 10 12 18 21 17 20 16 19 17 16 20 20 25 25 25 25 29 30 33 35 32 30 30 26 20 20 24 25
6 7 6 4 1 3 6 4 2 7 5 2 3 7 8 11 10 10 11 14 13 18 20 21 21 23 24 20 24 24 26 27 25 24 24 23 20 16 17 19 21 24 26
7 9 6 4 5 6 4 1 5 1 1 3 4 7 9 7 8 9 4 4 9 15 17 17 20 17 14 14 16 16 17 17 15 14 13 14 17 19 19 22 25 28 30
8 7 5 2 4 2 4 5 4 2 2 4 6 6 5 5 7 7 4 3 2 5 5 7 10 12 13 13 10 7 7 7 10 13 14 16 19 22 24 26 27 28 31
Wind_Direction
266 267 266 267 267 266 265 263 260 257 259 261 263 266 267 266 267 268 268 263 261 266 262 256 234 243 252 252 266 279 280 277 273 268 267 261 257 257 256 258 259 258 252
271 271 272 273 273 273 270 265 261 257 257 259 262 263 265 266 267 265 266 268 263 257 256 253 250 242 251 248 259 273 270 277 271 276 276 275 266 258 255 256 257 256 255
279 278 276 274 273 271 270 269 268 267 265 262 261 262 263 264 264 262 264 266 255 263 251 255 246 243 249 255 264 266 269 263 265 267 274 272 263 262 262 259 257 256 255
286 282 279 277 276 275 273 269 267 265 264 263 264 265 265 264 263 262 260 262 264 259 259 256 253 249 256 249 265 259 259 261 262 256 266 267 261 259 264 268 264 261 260
293 291 287 284 281 277 274 272 270 269 268 268 266 265 265 265 264 263 261 261 259 253 251 256 248 253 255 249 268 257 253 251 249 261 270 265 250 259 274 281 271 265 261
294 291 288 285 282 279 276 273 272 271 270 269 268 267 266 266 266 265 264 261 258 256 255 255 256 256 255 258 254 260 260 255 255 266 262 250 244 257 263 275 281 272 266
291 288 287 284 281 278 277 276 273 271 270 269 268 268 266 266 266 266 264 262 259 258 256 254 250 251 249 246 245 253 261 253 251 268 267 240 234 251 273 279 278 272 263
288 286 281 279 278 278 276 274 273 272 271 270 270 270 269 265 265 265 264 262 259 257 255 253 249 242 239 240 246 251 252 263 262 260 247 240 247 273 278 265 267 266 265
295 288 282 279 277 275 274 273 271 271 271 269 269 269 271 269 268 263 260 259 257 255 254 252 248 242 239 242 245 243 249 237 266 263 242 243 251 283 276 257 265 267 268
296 291 286 281 278 276 274 272 272 272 271 271 270 268 269 269 269 268 260 258 254 255 255 252 249 242 240 243 243 243 242 246 256 243 255 246 261 275 249 266 276 270 279
295 290 287 284 281 278 275 275 273 273 272 271 269 269 267 264 264 264 265 260 256 255 253 254 247 240 237 240 240 251 249 249 243 259 262 255 272 252 258 278 273 274 282
294 290 288 284 281 277 275 274 274 274 273 272 272 269 264 265 265 261 264 261 258 253 251 249 243 239 241 246 247 248 243 232 237 240 261 262 243 246 274 274 274 276 279
293 289 289 288 285 283 280 277 275 273 273 271 270 267 264 263 262 257 259 262 264 261 245 243 241 241 253 249 246 249 247 246 253 258 241 237 271 267 272 273 282 288 288
295 293 291 290 287 285 283 281 278 275 272 271 270 268 265 263 244 259 255 245 266 255 254 248 242 240 249 246 240 249 248 250 226 257 244 260 275 255 258 275 277 283 285
300 296 294 293 291 288 285 284 283 281 277 272 269 268 265 261 256 239 250 249 247 256 252 248 252 244 255 254 249 256 258 259 249 260 239 264 261 261 262 270 268 280 282
301 297 296 292 286 288 284 286 288 286 281 277 272 267 264 262 259 250 244 244 243 249 251 255 251 253 256 258 261 258 254 256 256 255 245 255 257 265 261 248 255 272 275
301 298 294 292 291 288 285 285 284 282 277 274 269 265 261 260 259 260 252 240 241 247 250 252 256 257 258 257 259 262 260 259 249 247 246 266 264 252 262 254 258 265 268
302 295 294 299 298 298 291 289 289 286 281 273 265 261 259 259 257 256 254 249 239 241 251 253 257 259 257 260 255 258 258 256 262 258 250 261 259 260 260 267 261 264 265
294 293 299 301 298 298 303 300 293 290 291 289 279 270 270 267 257 253 250 251 249 241 242 250 255 259 253 252 255 258 255 252 256 254 252 253 257 262 267 265 263 266 262
291 295 300 301 303 303 300 317 311 298 292 280 270 277 277 267 255 247 250 249 239 243 243 246 250 247 255 243 251 249 253 256 257 257 254 258 257 262 267 266 261 260 262
300 299 296 303 299 297 326 323 324 315 303 325 257 271 267 267 254 251 244 249 240 241 245 247 265 242 254 243 246 256 251 252 254 257 259 263 256 260 262 265 264 264 267
303 300 306 305 297 318 326 324 327 343 329 59 20 341 325 289 251 261 259 252 250 234 244 247 246 252 256 232 246 247 258 250 256 256 259 260 265 262 258 258 259 262 260
306 308 315 327 336 351 3 355 29 317 254 216 285 285 297 294 279 256 251 265 242 236 245 272 245 246 249 250 248 248 249 258 263 258 262 257 253 253 256 259 260 260 262
313 315 313 303 258 323 310 264 337 27 67 163 277 304 296 318 321 313 266 253 245 243 256 264 254 260 255 260 250 252 251 251 245 244 247 251 260 269 261 257 260 262 265
285 290 308 311 279 300 322 271 218 233 245 316 278 319 320 352 358 357 331 288 252 255 252 256 252 251 250 239 232 230 224 229 245 265 274 264 255 257 263 266 270 273 276
264 295 305 270 270 16 165 98 147 150 279 296 315 328 322 349 349 343 340 351 245 215 205 211 219 230 239 246 245 245 250 253 250 249 254 259 264 268 271 274 275 277 278